Regional Weather Roundup
Issued by NWS

Home | Current Version | Previous Version | Text Only | Print | Product List | Glossary Off
Versions: 1 2 3 4 5 6 7 8 9 10 11 12 13 14 15 16 17 18 19 20 21 22 23 24 25 26 27 28 29 30 31 32 33 34 35 36 37 38 39 40 41 42 43 44 45 46 47 48 49 50

000
ASUS43 KLMK 162002
RWRKY
KENTUCKY REGIONAL WEATHER ROUNDUP
NATIONAL WEATHER SERVICE LOUISVILLE KY
400 PM EDT WED AUG 16 2017

NOTE "FAIR" INDICATES FEW OR NO CLOUDS BELOW 12,000 FEET
WITH NO SIGNIFICANT WEATHER AND/OR OBSTRUCTIONS TO VISIBILITY.

KYZ001>023-026-027-061>063-070>075-162100-
WESTERN AND SOUTH CENTRAL KENTUCKY

CITY           SKY/WX    TMP DP  RH WIND       PRES   REMARKS
PADUCAH        MOSUNNY   91  73  55 SW9       29.92F HX  99
HENDERSON      CLOUDY    89  76  65 VRB6      29.95F HX 100
OWENSBORO      CLOUDY    87  77  72 S7        29.97F HX  99
HOPKINSVILLE   MOSUNNY   90  74  59 S10       29.96F HX  99
BOWLING GREEN  CLOUDY    85  74  69 S12       30.00F HX  92
GLASGOW        CLOUDY    85  74  70 SW7       30.01F HX  93
$$

KYZ024-025-028>034-038-045-046-053-162100-
NORTH CENTRAL KENTUCKY

CITY           SKY/WX    TMP DP  RH WIND       PRES   REMARKS
LOUISVILLE/SDF CLOUDY    92  70  48 SW5       29.97F HX  97
LOUISVILLE/LOU PTSUNNY   90  72  55 VRB5      29.98F HX  97
FORT KNOX      PTSUNNY   88  70  55 VRB3      29.98F HX  92
$$

KYZ035>037-039>044-047>052-055>060-089>105-162100-
NORTHEAST KENTUCKY

CITY           SKY/WX    TMP DP  RH WIND       PRES   REMARKS
LEXINGTON      SUNNY     86  70  58 SW8       30.03F HX  90
COVINGTON      MOSUNNY   90  71  53 VRB5      29.99F HX  96
FRANKFORT      MOSUNNY   88  69  53 SW7       29.99F HX  92
$$

KYZ054-064>069-076>088-106>120-162100-
SOUTHEAST KENTUCKY

CITY           SKY/WX    TMP DP  RH WIND       PRES   REMARKS
JACKSON        CLOUDY    85  73  67 CALM      30.05F HX  91
LONDON         MOSUNNY   82  72  71 VRB3      30.05F
SOMERSET       NOT AVBL
MIDDLESBORO    LGT RAIN  83  72  68 S3        30.04F
MONTICELLO     MOCLDY    88  75  65 W12G18    30.05F HX  97
$$





USA.gov is the U.S. government's official web portal to all federal, state and local government web resources and services.